Regional Weather Roundup
Issued by NWS

Home | Current Version | Previous Version | Text Only | Print | Product List | Glossary On
Versions: 1 2 3 4 5 6 7 8 9 10 11 12 13 14 15 16 17 18 19 20 21 22 23 24 25 26 27 28 29 30 31 32 33 34 35 36 37 38 39 40 41 42 43 44 45 46 47 48 49 50
000
ASUS42 KKEY 070110
RWRKEY

FLORIDA REGIONAL WEATHER ROUNDUP FOR THE FLORIDA KEYS
NATIONAL WEATHER SERVICE KEY WEST FLORIDA
800 PM EST SAT FEB 06 2016

...SOUTH FLORIDA AND THE KEYS...

CITY           SKY/WX    TMP DP  RH WIND       PRES   REMARKS
FORT MYERS     LGT RAIN  57  55  93 NW8       30.06F
SW REGIONAL AP LGT RAIN  57  55  93 VRB5      30.06F
NAPLES         CLOUDY    58  57  97 N6        30.06F
MIAMI          RAIN      66  64  93 W12G23    30.03R FOG
WEST KENDALL   LGT RAIN  65  64  97 W15       30.04R
HOMESTEAD      HVY RAIN  66  64  94 W13       30.03R FOG
MARATHON       LGT RAIN  64  63  96 NW17G29   30.05S FOG
BOCA CHICA NAS CLOUDY    63  62  97 N23G30    30.07S
KEY WEST INTL  CLOUDY    64  64 100 N17G25    30.06F

...INTERNATIONAL WEATHER...

CITY           SKY/WX    TMP DP  RH WIND       PRES   REMARKS
NASSAU BAHAMAS PTCLDY    72  66  83 CALM      30.04S
CANCUN MEXICO  CLOUDY    66  66 100 NW5       30.15R
COZUMEL MEXICO CLOUDY    66  57  72 N18       30.14R

ADJACENT COASTAL WATERS...

STATION/POSITION TIME  SKY/WX   TEMP    WIND        PRES    WAVE
                                AIR SEA DIR/SP/G            HT/PER
                 (UTC)          (F)     (DEG/KT/KT) (MB)    (FT/S)
PULASKI SHOAL LI 0000                                 N/A
SAND KEY         0050            65     360/ 25/ 29 1018.5F
SOMBRERO KEY     NOT AVBL
LONG KEY         0000            66 71  330/ 21/ 23 1017.5R
MOLASSES REEF    0100            76 77  210/ 12/ 14 1016.2R
FOWEY ROCKS      NOT AVBL

$$



USA.gov is the U.S. government's official web portal to all federal, state and local government web resources and services.